Location: Mahannah Oil Field
(37.4664°N, 96.6003°W)
Time: 13:42:06
(UTC+00:00)

Altair - Pass Details

Date: 26 January 2021
Orbit: 1501 x 1682 km, 47.2° (Epoch: 05 March)

Event Time Altitude Azimuth Distance (km) Brightness Sun altitude
Exits shadow 10:10:53 65° 143° (SE) 1,796 7.7 -40.3°
Maximum altitude 10:11:02 65° 139° (SE) 1,796 7.7 -40.3°
Drops below altitude 10° 10:21:00 10° 61° (ENE) 3,945 10.3 -38.3°
Sets 10:24:13 0° 59° (ENE) 4,939 10.9 -37.7°
